AD5L Weather Reports


Display with metric or nautical units.
time (UTC)temp
F
wind
direction
speed
MPH
gust
MPH
rain 1hr
in
rain 24hr
in
rain mn
in
humidity
%
barometer
mb
20260509200342 89 95 2.0 4.0 0.00 0.12 0.12 55 1010.3
20260509195332 87 116 2.0 5.0 0.00 0.12 0.12 58 1010.3
20260509194323 86 70 3.0 5.0 0.00 0.12 0.12 64 1010.3
20260509193330 85 341 2.0 7.0 0.00 0.12 0.12 71 1010.2
20260509192338 85 18 3.0 6.0 0.00 0.12 0.12 75 1010.4
20260509191327 84 26 4.0 9.0 0.00 0.12 0.12 74 1010.5
20260509190339 83 75 2.0 7.0 0.00 0.12 0.12 71 1010.7
20260509185349 82 16 1.0 4.0 0.00 0.12 0.12 79 1011.1
20260509184331 81 47 2.0 3.0 0.00 0.12 0.12 83 1011.0
20260509183340 80 330 2.0 3.0 0.00 0.12 0.12 88 1011.2
20260509182331 78 56 0.0 2.0 0.00 0.12 0.12 98 1011.4
20260509181343 77 56 1.0 2.0 0.00 0.12 0.12 98 1011.4
20260509180332 76 56 0.0 2.0 0.00 0.12 0.12 99 1011.7
20260509175343 76 56 1.0 3.0 0.05 0.12 0.12 99 1011.7
20260509174324 76 18 2.0 5.0 0.12 0.12 0.12 99 1011.6
20260509173344 76 12 1.0 3.0 0.12 0.12 0.12 99 1011.9
20260509172326 75 88 0.0 2.0 0.12 0.12 0.12 99 1011.7
20260509171337 75 88 1.0 3.0 0.12 0.12 0.12 98 1012.1
20260509170328 76 129 0.0 2.0 0.12 0.12 0.12 97 1012.3
20260509165338 78 135 0.0 6.0 0.07 0.07 0.07 95 1012.1
20260509164327 83 160 2.0 7.0 0.00 0.00 0.00 77 1012.1
20260509163337 85 149 4.0 10.0 0.00 0.00 0.00 74 1011.8
20260509162341 88 129 5.0 8.0 0.00 0.00 0.00 72 1011.9
20260509161329 88 118 3.0 7.0 0.00 0.00 0.00 67 1011.8
20260509160339 87 144 1.0 5.0 0.00 0.00 0.00 68 1011.7
20260509155330 87 140 2.0 6.0 0.00 0.00 0.00 69 1011.7
20260509154334 85 147 2.0 5.0 0.00 0.00 0.00 73 1011.7
20260509153326 84 203 1.0 4.0 0.00 0.00 0.00 74 1011.5
20260509152338 84 20 1.0 5.0 0.00 0.00 0.00 74 1011.3
20260509151328 84 134 2.0 10.0 0.00 0.00 0.00 77 1011.3
20260509150338 83 169 4.0 10.0 0.00 0.00 0.00 79 1011.1
20260509145329 82 160 3.0 12.0 0.00 0.00 0.00 80 1011.0
20260509144338 81 233 5.0 10.0 0.00 0.00 0.00 81 1010.8
20260509143328 81 196 6.0 13.0 0.00 0.00 0.00 81 1010.5
20260509142339 80 245 7.0 12.0 0.00 0.00 0.00 83 1010.4
20260509141349 80 196 4.0 8.0 0.00 0.00 0.00 85 1010.5
20260509140338 79 214 3.0 7.0 0.00 0.00 0.00 87 1010.6
20260509135348 78 211 3.0 7.0 0.00 0.00 0.00 88 1010.6
20260509134340 77 221 2.0 7.0 0.00 0.00 0.00 90 1010.7
20260509133350 77 171 1.0 9.0 0.00 0.00 0.00 91 1010.4
20260509132329 76 149 3.0 6.0 0.00 0.00 0.00 92 1010.0
20260509131349 74 231 3.0 6.0 0.00 0.00 0.00 93 1010.5
20260509130327 74 256 1.0 3.0 0.00 0.00 0.00 95 1010.4
20260509125338 73 328 1.0 3.0 0.00 0.00 0.00 96 1010.3
20260509124329 72 250 2.0 5.0 0.00 0.00 0.00 97 1010.5
20260509123339 71 221 2.0 5.0 0.00 0.00 0.00 98 1010.7
20260509122329 71 250 2.0 4.0 0.00 0.00 0.00 98 1010.9
20260509121338 71 144 0.0 2.0 0.00 0.00 0.00 98 1010.9
20260509120327 71 99 0.0 1.0 0.00 0.00 0.00 98 1011.1
20260509115339 71 257 0.0 1.0 0.00 0.00 0.00 98 1011.3
20260509114325 71 257 2.0 4.0 0.00 0.00 0.00 98 1011.4
20260509113331 71 327 0.0 1.0 0.00 0.00 0.00 98 1011.9
20260509112342 71 327 0.0 1.0 0.00 0.00 0.00 98 1011.8
20260509111331 71 327 0.0 1.0 0.00 0.00 0.00 98 1011.9
20260509110339 71 327 0.0 1.0 0.00 0.00 0.00 98 1012.0
20260509105330 71 328 0.0 1.0 0.00 0.00 0.00 98 1012.3
20260509104340 71 327 2.0 4.0 0.00 0.00 0.00 98 1012.4
20260509103330 71 332 1.0 4.0 0.00 0.00 0.00 98 1012.6
20260509102321 71 356 3.0 5.0 0.00 0.00 0.00 98 1012.4
20260509101331 71 347 0.0 1.0 0.00 0.00 0.00 98 1012.3
20260509100341 71 347 1.0 4.0 0.00 0.00 0.00 98 1012.1
20260509095332 71 340 1.0 5.0 0.00 0.00 0.00 98 1011.9
20260509094343 71 35 3.0 6.0 0.00 0.00 0.00 98 1011.6
20260509093325 71 334 3.0 5.0 0.00 0.00 0.00 98 1011.6
20260509092341 71 151 0.0 1.0 0.00 0.00 0.00 98 1011.2
20260509091351 71 151 0.0 0.0 0.00 0.00 0.00 97 1010.7
20260509090329 71 151 0.0 0.0 0.00 0.00 0.00 97 1010.7
20260509085350 71 151 0.0 0.0 0.00 0.00 0.00 97 1010.8
20260509084332 72 151 0.0 0.0 0.00 0.00 0.00 97 1010.9
20260509083322 72 139 0.0 0.0 0.00 0.00 0.00 96 1011.2
20260509082333 72 139 0.0 0.0 0.00 0.00 0.00 96 1011.2
20260509081325 72 139 0.0 0.0 0.00 0.00 0.00 96 1011.3
20260509080336 72 139 0.0 0.0 0.00 0.00 0.00 96 1011.1
20260509075327 72 139 0.0 0.0 0.00 0.00 0.00 96 1011.3
20260509074334 73 139 0.0 0.0 0.00 0.00 0.00 96 1011.7
20260509073325 73 139 0.0 1.0 0.00 0.00 0.00 95 1011.7
20260509072332 73 139 0.0 3.0 0.00 0.00 0.00 95 1011.8
20260509071322 73 190 0.0 3.0 0.00 0.00 0.00 95 1011.8
20260509070332 73 164 0.0 2.0 0.00 0.00 0.00 95 1011.6
20260509065324 73 217 0.0 1.0 0.00 0.00 0.00 95 1011.2
20260509064334 73 142 1.0 3.0 0.00 0.00 0.00 95 1011.6
20260509063323 73 145 0.0 3.0 0.00 0.00 0.00 95 1011.6
20260509062334 73 153 0.0 3.0 0.00 0.00 0.00 95 1011.7
20260509061342 73 127 0.0 2.0 0.00 0.00 0.00 94 1011.6
20260509060327 73 127 0.0 1.0 0.00 0.00 0.00 94 1011.5
20260509055338 73 127 0.0 2.0 0.00 0.00 0.00 95 1011.7
20260509054328 73 128 0.0 2.0 0.00 0.00 0.00 95 1011.1
20260509053338 73 78 1.0 3.0 0.00 0.00 0.00 94 1010.6
20260509052349 72 101 1.0 3.0 0.00 0.00 0.00 95 1010.2
20260509051339 72 91 0.0 3.0 0.00 0.00 0.00 95 1010.3
20260509050350 72 109 1.0 2.0 0.00 0.00 0.00 94 1010.1
20260509045332 72 128 0.0 4.0 0.00 0.00 0.00 94 1010.0
20260509044323 72 129 1.0 3.0 0.00 0.00 0.00 94 1010.2
20260509043334 72 131 0.0 1.0 0.00 0.00 0.00 94 1010.5
20260509042325 72 131 0.0 1.0 0.00 0.00 0.00 94 1010.7
20260509041335 72 131 0.0 1.0 0.00 0.00 0.00 94 1010.7
20260509040326 72 131 0.0 1.0 0.00 0.00 0.00 94 1010.6
20260509035336 72 131 0.0 1.0 0.00 0.00 0.00 94 1010.6
20260509034327 72 131 0.0 1.0 0.00 0.00 0.00 94 1010.7
20260509033337 72 131 0.0 1.0 0.00 0.00 0.00 94 1010.5
20260509032325 72 131 0.0 1.0 0.00 0.00 0.00 94 1010.5
20260509031331 72 131 0.0 1.0 0.00 0.00 0.00 94 1010.4
20260509030339 72 131 0.0 2.0 0.00 0.00 0.00 93 1010.1
20260509025328 72 143 0.0 2.0 0.00 0.00 0.00 93 1010.0
20260509024336 72 129 0.0 3.0 0.00 0.00 0.00 93 1009.8
20260509023326 72 141 1.0 2.0 0.00 0.00 0.00 93 1009.9
20260509022337 73 141 0.0 2.0 0.00 0.00 0.00 92 1010.0
20260509021328 73 141 1.0 3.0 0.00 0.00 0.00 92 1009.9
20260509020339 73 127 0.0 2.0 0.00 0.00 0.00 91 1009.7
20260509015329 74 94 0.0 5.0 0.00 0.00 0.00 91 1009.5
20260509014339 74 122 1.0 5.0 0.00 0.00 0.00 90 1009.4
20260509013346 74 101 0.0 4.0 0.00 0.00 0.00 89 1009.4
20260509012336 74 89 1.0 4.0 0.00 0.00 0.00 89 1009.4
20260509011348 75 75 2.0 7.0 0.00 0.00 0.00 88 1009.2
20260509010329 75 133 3.0 8.0 0.00 0.00 0.00 88 1009.1
20260509005349 75 113 4.0 7.0 0.00 0.00 0.00 88 1009.3
20260509004329 75 84 3.0 6.0 0.00 0.00 0.00 88 1009.4
20260509003350 75 71 3.0 6.0 0.00 0.00 0.00 87 1009.3
20260509002331 75 84 3.0 5.0 0.00 0.00 0.00 87 1009.1
20260509001322 76 84 2.0 6.0 0.00 0.00 0.00 87 1009.3
20260509000333 76 103 4.0 6.0 0.00 0.00 0.00 86 1009.5
20260508235324 76 84 4.0 7.0 0.00 0.00 0.00 86 1009.4
20260508234335 76 94 2.0 7.0 0.00 0.00 0.00 86 1009.4
20260508233326 76 46 3.0 6.0 0.00 0.00 0.00 85 1009.6
20260508232337 76 77 3.0 7.0 0.00 0.00 0.00 85 1009.3
20260508231325 77 73 3.0 8.0 0.00 0.00 0.00 84 1009.2
20260508230332 77 108 4.0 8.0 0.00 0.00 0.00 84 1009.5
20260508225323 77 79 3.0 7.0 0.00 0.00 0.00 83 1009.3
20260508224335 77 78 5.0 8.0 0.00 0.00 0.00 83 1009.4
20260508223326 77 64 2.0 7.0 0.00 0.00 0.00 84 1009.5
20260508222336 77 72 5.0 8.0 0.00 0.00 0.00 82 1009.6
20260508221347 77 63 6.0 9.0 0.00 0.00 0.00 82 1009.4
20260508220337 77 84 3.0 9.0 0.00 0.00 0.00 82 1009.7
20260508215348 78 96 4.0 8.0 0.00 0.00 0.00 82 1009.7
20260508214330 78 86 4.0 9.0 0.00 0.00 0.00 80 1009.8
20260508213351 78 56 5.0 9.0 0.00 0.00 0.00 80 1009.9
20260508212332 78 39 3.0 6.0 0.00 0.00 0.00 79 1010.0
20260508211324 78 58 5.0 10.0 0.00 0.00 0.00 79 1010.1
20260508210334 77 50 3.0 7.0 0.00 0.00 0.00 81 1010.3
20260508205326 77 94 1.0 6.0 0.00 0.00 0.00 80 1010.6
20260508204336 76 93 4.0 9.0 0.00 0.00 0.00 80 1010.6
20260508203324 78 72 4.0 8.0 0.00 0.00 0.00 80 1010.8
20260508202334 76 147 3.0 8.0 0.00 0.00 0.00 81 1010.8
20260508201323 77 125 5.0 10.0 0.00 0.00 0.00 80 1010.9